Location: Newark
(51.3000°N, 178.2000°W)
Time: 01:27:45
(UTC+00:00)

ISS - Pass Details

Date: 17 May 2021
Orbit: 417 x 422 km, 51.6° (Epoch: 15 June)

Event Time Altitude Azimuth Distance (km) Brightness Sun altitude
Rises 12:27:05 0° 282° (WNW) 2,372 0.1 -18.8°
Reaches altitude 10° 12:29:12 10° 280° (W) 1,507 -0.9 -18.7°
Enters shadow 12:32:30 69° 207° (SSW) 455 -3.9 -18.6°
